Change the Weather History Date:

Sunday, February 24, 2013

  Actual Average Record
Temperature  
Mean Temperature 76 °F -  
Max Temperature 87 °F 82 °F - ()
Min Temperature 65 °F 68 °F - ()
Cooling Degree Days 11    
Growing Degree Days 26 (Base 50)    
Moisture  
Dew Point 70 °F    
Average Humidity 71    
Maximum Humidity 94    
Minimum Humidity 41    
Precipitation  
Precipitation 0.00 in - - ()
Sea Level Pressure  
Sea Level Pressure 29.98 in    
Wind  
Wind Speed 5 mph ()    
Max Wind Speed 18 mph    
Max Gust Speed -    
Visibility 7.0 miles    
Events      
T = Trace of Precipitation, MM = Missing Value Source: Averaged Metar Reports

Daily Weather History Graph

Daily Weather History Graph

Search for Another Location

Airport or City:

Trip Planner

Search our weather history database for the weather conditions in past years. The results will help you decide how hot, cold, wet, or windy it might be!

Date:

Astronomy

Feb. 24, 2013 Rise Set
Actual Time 7:05 AM AST 6:45 PM AST
Civil Twilight 6:43 AM AST 7:07 PM AST
Nautical Twilight 6:17 AM AST 7:33 PM AST
Astronomical Twilight 5:51 AM AST 7:59 PM AST
Moon 5:53 PM AST (2/24) 5:57 AM AST (2/24)
Length of Visible Light 12h 24m
Length of Day
11h 40m
Waxing Gibbous, 98% of the Moon is Illuminated
Feb 24
Waxing Gibbous
Feb 25
Full
Mar 4
Last Quarter
Mar 11
New
Mar 19
First Quarter

Hourly Weather History & Observations

Time (AST) Temp. Heat Index Dew Point Humidity Pressure Visibility Wind Dir Wind Speed Gust Speed Precip Events Conditions
2:00 AM 71.6 °F - 69.8 °F 94% 30.01 in 6.2 mi Calm Calm - N/A   Partly Cloudy
5:00 AM 69.8 °F - 68.0 °F 94% 29.98 in 6.2 mi Calm Calm - N/A   Partly Cloudy
8:00 AM 70 °F - 67 °F 85% 30.01 in 10 mi Calm Calm - -   Scattered Clouds
8:00 AM 69.8 °F - 66.2 °F 88% 30.09 in 6.2 mi Calm Calm - N/A   Partly Cloudy
9:00 AM 77.0 °F - 68.0 °F 74% 30.01 in 6.2 mi Calm Calm - N/A   Partly Cloudy
10:00 AM 80.6 °F 83.2 °F 68.0 °F 65% 30.04 in 6.2 mi SE 6.9 mph - N/A   Partly Cloudy
11:00 AM 84 °F - 69 °F 52% 30.04 in 10 mi SSE 8.9 mph - -   Scattered Clouds
11:00 AM 84.2 °F 88.4 °F 69.8 °F 62% 30.04 in 6.2 mi SSE 8.1 mph - N/A   Partly Cloudy
12:00 PM 84.2 °F 88.4 °F 69.8 °F 62% 30.01 in 6.2 mi SSE 11.5 mph - N/A   Partly Cloudy
1:00 PM 86.0 °F 88.2 °F 66.2 °F 51% 30.01 in 6.2 mi South 11.5 mph - N/A   Partly Cloudy
2:00 PM 88 °F - 67 °F 41% 29.97 in 10 mi ESE 11.2 mph - -   Scattered Clouds
2:00 PM 87.8 °F 91.4 °F 68.0 °F 52% 29.95 in 6.2 mi ESE 11.5 mph - N/A   Partly Cloudy
3:00 PM 84.2 °F 92.3 °F 75.2 °F 74% 29.95 in 6.2 mi East 13.8 mph - N/A   Partly Cloudy
4:00 PM 84.2 °F 89.6 °F 71.6 °F 66% 29.92 in 6.2 mi East 17.3 mph - N/A   Partly Cloudy
5:00 PM 83 °F - 73 °F 66% 29.93 in 10 mi East 17.9 mph - -   Scattered Clouds
5:00 PM 82.4 °F 88.2 °F 73.4 °F 74% 29.92 in 6.2 mi East 18.4 mph - N/A   Partly Cloudy
6:00 PM 82.4 °F 88.2 °F 73.4 °F 74% 29.92 in 6.2 mi East 17.3 mph - N/A   Partly Cloudy
7:00 PM 78.8 °F - 73.4 °F 83% 29.95 in 6.2 mi East 11.5 mph - N/A   Partly Cloudy
8:00 PM 78.8 °F - 71.6 °F 78% 29.95 in 6.2 mi Calm Calm - N/A   Mostly Cloudy
11:00 PM 73.4 °F - 71.6 °F 94% 29.98 in 6.2 mi Calm Calm - N/A   Partly Cloudy